Location: ????????
(55.5667°N, 37.5833°E)
Time: 01:52:22
(UTC+00:00)

CZ-4B DEB - Pass Details

Date: 14 April 2026
Orbit: 834 x 853 km, 98.9° (Epoch: 20 May)

Event Time Altitude Azimuth Distance (km) Brightness Sun altitude
Rises 17:11:24 0° 160° (SSE) 3,386 6.9 -5.8°
Reaches altitude 10° 17:13:44 10° 161° (SSE) 2,458 6.2 -6.1°
Maximum altitude 17:19:12 90° 79° (ENE) 854 4.3 -6.8°
Drops below altitude 10° 17:24:45 10° 343° (NNW) 2,488 7.4 -7.5°
Sets 17:27:08 0° 344° (NNW) 3,431 8.1 -7.8°
